Theta_e
341 341 344 345 347 347 347 345 344 339 339 338 336 335 335 334 335 336 336 336 335 336 334 334 335 336 334 334 334 334 336 337 337 337 338 337 340 341 341 341 342 342 341 338 338 338 337 335 334 334 332 332 331 330 330 330 330 329 330 330 333 336 336 335 333 333 332 330 330 329 328 327 327 326 326 325 325 325 324 324 323 323 323 322 322
342 342 344 346 347 348 346 347 345 342 343 338 336 335 334 334 333 335 333 334 333 334 334 334 333 335 334 333 333 335 336 336 336 335 336 338 339 341 341 342 342 342 342 343 339 339 337 337 336 335 333 332 331 331 330 330 330 330 329 330 334 335 335 335 334 333 332 331 328 327 328 327 326 325 326 325 325 324 324 324 323 322 322 322 321
346 345 345 346 345 344 346 345 346 344 342 337 338 335 335 335 333 332 334 333 333 334 333 334 333 333 333 332 333 336 335 336 335 334 335 336 337 339 343 342 342 342 342 342 342 339 338 338 337 335 335 333 332 332 331 330 331 329 330 331 334 335 335 335 334 333 332 331 330 328 327 327 327 326 326 325 325 324 324 324 323 322 322 321 321
349 347 344 340 345 346 346 344 339 344 341 339 342 336 336 334 332 334 335 335 334 334 335 333 334 331 333 332 332 334 334 335 334 335 334 336 336 338 338 341 342 343 342 342 342 342 341 339 338 336 336 335 334 332 333 330 331 330 330 331 333 334 334 336 334 333 332 331 331 329 328 327 327 326 325 325 324 324 323 323 323 322 321 321 321
350 348 344 344 346 346 346 343 340 343 343 341 338 340 336 334 334 334 334 336 335 335 333 334 334 335 336 333 333 331 331 333 335 335 334 334 335 336 338 338 342 341 340 342 341 341 342 341 338 338 337 336 335 333 333 331 331 331 330 331 333 334 333 334 335 334 333 332 331 330 328 327 327 326 326 325 324 324 323 322 322 322 321 321 320
346 346 346 345 346 344 344 342 343 342 342 340 341 338 336 334 334 333 332 333 333 336 333 332 331 335 336 336 336 335 334 331 334 334 336 335 335 336 336 337 338 341 342 343 342 341 340 341 342 339 337 337 336 335 335 334 333 331 331 331 332 333 332 332 335 335 333 332 332 330 329 327 327 327 326 325 324 323 323 322 321 321 321 321 320
345 346 345 345 343 344 342 342 342 342 343 341 341 335 335 334 337 332 334 334 333 333 335 336 333 333 334 337 334 334 336 333 333 334 334 336 337 335 336 336 337 338 337 343 342 340 339 340 342 342 341 338 337 337 336 335 334 333 331 331 331 331 331 331 332 336 334 333 331 331 330 329 327 326 325 325 324 323 323 322 322 321 321 320 320
346 346 344 343 342 342 343 342 343 343 340 342 340 332 335 339 338 337 333 332 332 334 334 333 332 332 334 335 334 336 336 333 332 331 333 334 331 335 336 336 339 337 337 338 341 342 338 339 339 340 341 341 339 338 338 336 335 335 334 333 332 332 331 330 331 335 335 334 332 331 330 330 328 327 326 325 324 324 323 323 322 321 321 320 320
344 344 344 342 342 340 343 342 341 338 336 339 338 336 337 337 338 339 338 335 332 330 332 334 333 333 333 332 335 335 333 333 333 333 330 331 331 332 333 334 336 336 338 338 340 339 340 338 339 338 338 340 341 339 338 337 337 336 336 334 334 333 333 331 331 333 336 334 334 332 331 330 328 328 326 325 325 324 323 323 322 321 321 320 320
342 342 343 342 340 340 341 340 339 331 334 335 338 337 338 336 335 335 335 333 332 330 331 334 332 331 332 332 333 335 334 334 335 335 332 330 330 330 332 336 336 336 337 338 338 339 341 340 338 337 337 336 337 341 340 339 338 337 336 335 334 334 334 334 331 331 333 335 335 333 332 330 328 328 327 326 325 325 324 323 322 322 321 320 319
339 340 340 340 340 339 335 334 335 335 333 334 335 334 335 337 332 333 335 334 333 333 333 332 330 330 331 333 334 332 336 335 334 333 333 332 331 331 332 334 334 335 337 338 336 336 338 339 341 341 341 335 337 340 341 341 340 338 337 336 335 335 335 335 334 332 332 335 336 334 333 331 328 328 328 326 326 325 325 324 323 322 321 320 320
333 334 334 336 337 337 335 335 336 333 331 330 333 334 335 337 336 335 335 334 334 335 334 331 331 330 331 332 332 332 331 334 335 335 335 334 335 335 334 334 334 335 334 335 336 336 336 336 336 336 337 337 335 337 338 338 339 341 340 337 336 336 336 336 336 335 333 332 336 335 334 331 329 328 328 327 326 325 325 324 324 323 322 321 320
331 332 332 332 333 338 338 333 335 333 332 332 332 333 335 336 336 334 333 333 333 332 333 334 330 327 333 331 331 331 331 332 332 332 332 334 336 336 336 336 335 334 336 335 335 336 335 335 335 335 335 336 340 336 335 335 337 340 341 340 339 338 337 337 337 337 336 334 334 337 335 332 330 328 328 328 327 326 326 324 324 323 322 321 320
330 331 332 331 330 331 333 334 337 335 334 332 330 331 332 333 332 331 331 330 329 333 333 333 327 326 325 326 330 333 329 330 331 327 332 332 335 337 337 337 336 338 338 335 336 333 333 335 336 335 335 335 335 340 340 340 338 337 340 341 341 340 339 338 338 338 338 337 334 337 335 333 331 329 329 328 327 327 326 325 324 323 322 322 321
329 328 329 329 330 330 331 332 332 333 333 332 332 333 333 332 330 328 328 329 329 334 334 332 328 329 329 323 321 322 330 330 330 327 331 329 330 331 332 333 333 335 337 338 335 336 334 335 335 335 337 336 334 334 336 337 337 336 337 339 341 341 341 340 339 339 339 338 337 337 336 334 331 330 329 328 328 327 326 325 324 323 323 322 321
327 327 327 327 329 329 330 330 330 332 331 329 329 328 330 330 330 328 328 326 326 328 334 332 333 329 319 321 322 319 315 321 327 328 327 325 328 329 332 331 334 334 336 337 338 339 338 337 336 336 338 337 336 334 333 334 333 335 334 334 335 339 342 342 340 340 339 339 338 337 337 335 333 331 330 329 328 327 326 325 324 323 322 322 322
327 327 325 325 327 329 329 329 328 329 328 327 327 327 328 329 329 330 328 327 324 327 330 333 331 331 329 321 317 315 317 320 324 326 330 328 327 325 330 331 331 333 335 335 338 340 339 339 340 338 339 339 339 337 336 335 335 339 341 335 335 336 338 341 342 341 340 339 337 338 338 335 334 332 331 329 329 328 327 326 325 324 323 323 323
326 326 325 325 327 328 329 327 327 327 327 326 325 325 324 325 329 329 329 331 328 327 326 331 332 333 334 331 323 321 319 322 321 315 327 331 330 329 328 329 333 334 335 334 336 334 338 340 341 341 341 341 339 337 336 336 336 336 338 341 330 333 334 335 340 341 343 341 340 337 336 337 335 333 331 330 329 328 327 326 325 325 324 324 323
327 326 325 324 326 327 328 327 325 326 325 326 324 324 323 323 326 326 327 327 328 325 325 324 329 331 332 330 332 330 330 324 316 320 315 322 327 330 328 329 329 329 330 331 335 336 337 338 338 337 339 341 340 339 339 338 335 335 336 334 330 327 326 326 333 340 342 342 343 339 337 338 337 334 332 331 330 329 328 327 326 326 325 325 324
326 326 326 326 326 325 325 324 321 321 321 321 323 323 324 324 326 327 326 326 325 325 324 325 323 325 330 329 328 327 330 329 326 321 320 316 319 330 330 329 330 329 332 332 335 335 337 338 336 336 338 338 340 340 342 341 341 340 338 329 327 324 323 322 321 323 334 341 343 342 339 337 338 335 333 332 330 329 328 328 327 326 326 325 325
324 325 324 321 319 319 319 318 317 316 314 315 319 320 323 324 324 324 325 325 324 324 322 321 322 322 322 322 324 323 326 327 326 323 320 315 315 320 322 329 328 329 332 334 334 336 336 336 335 334 336 338 339 339 340 342 342 344 339 328 325 324 323 320 317 316 317 329 338 342 343 338 339 337 334 333 331 330 329 328 327 326 325 325 325
323 323 321 319 319 319 318 317 317 315 314 316 316 318 319 321 322 323 324 323 323 323 323 322 322 323 322 321 320 320 320 320 321 319 319 320 314 315 317 318 321 327 328 327 328 330 333 334 336 332 333 336 337 338 339 340 343 341 337 327 324 322 322 320 314 315 317 319 329 336 340 339 338 337 337 335 334 331 330 329 329 328 328 327 326
321 322 321 320 321 319 319 318 318 317 315 315 316 315 317 317 318 320 320 320 320 320 320 321 320 320 320 319 317 317 316 316 316 316 316 314 314 314 315 314 313 315 321 325 327 328 327 327 329 330 334 336 336 336 338 340 336 334 327 324 325 321 320 318 314 314 315 322 325 331 336 338 339 338 337 337 336 335 332 332 331 331 329 328 328
321 320 320 320 321 320 320 319 318 318 316 316 316 315 315 316 316 317 317 318 318 316 317 316 317 316 318 318 317 317 317 316 316 316 315 314 313 312 311 312 313 314 316 323 322 323 325 323 325 329 332 332 335 337 337 336 335 329 333 328 323 319 318 316 313 313 312 316 321 325 332 337 338 338 338 338 337 336 335 333 333 332 331 330 328
320 320 320 321 320 321 320 318 317 318 317 315 316 316 316 316 316 316 317 316 316 316 314 314 314 314 313 315 314 314 315 316 316 315 315 315 314 312 313 314 311 312 313 315 315 317 321 325 327 328 329 331 331 332 333 335 335 329 325 331 323 321 317 316 314 312 311 310 314 321 326 332 337 339 339 338 337 336 336 334 328 323 324 323 325
321 321 320 320 321 322 321 320 318 318 317 317 317 317 317 315 316 316 316 316 316 315 314 314 314 313 313 311 312 312 313 314 314 314 313 312 312 312 311 311 311 309 310 312 315 314 319 324 327 327 328 329 331 331 333 332 335 325 322 330 329 320 318 317 315 312 309 309 309 314 318 322 327 333 337 337 335 331 328 323 320 320 317 317 317
321 323 322 322 322 322 322 321 319 318 317 317 317 317 316 315 315 317 316 316 316 315 314 314 312 312 311 311 310 311 311 311 313 312 312 312 311 311 310 306 307 309 308 312 313 316 317 320 322 322 326 330 331 332 331 333 328 324 323 338 337 323 317 317 315 314 311 309 307 307 310 313 315 317 320 322 321 322 322 322 321 317 317 316 315
322 324 324 323 323 323 322 321 320 319 318 317 317 316 316 315 315 316 315 315 315 315 315 314 313 312 311 311 311 310 310 310 311 311 312 313 312 312 311 310 307 305 308 308 310 313 319 319 322 323 324 327 328 330 328 328 330 322 324 336 334 332 317 314 314 314 313 310 308 307 307 307 308 310 311 313 318 319 322 322 320 317 315 315 315
321 324 324 325 324 324 322 322 321 319 318 317 316 316 316 315 315 315 315 316 315 313 314 314 313 313 313 311 311 310 311 311 310 312 313 313 313 312 312 310 309 307 306 306 308 309 313 318 316 321 322 324 329 330 329 329 327 327 332 332 334 335 324 315 313 312 312 311 308 308 306 307 307 307 311 313 316 318 319 319 318 317 315 315 314
322 323 325 324 324 323 323 322 321 320 318 317 316 316 317 315 315 315 314 315 314 313 313 312 311 311 310 311 310 311 312 312 311 311 312 313 313 313 313 312 312 308 308 306 308 311 311 315 317 319 325 325 327 329 330 328 325 325 328 329 331 333 319 315 314 311 311 310 309 309 307 306 307 308 311 311 313 315 314 315 315 314 314 313 313
322 323 324 323 323 323 323 322 321 320 319 318 317 317 316 315 315 314 315 314 313 312 311 311 310 310 309 309 309 310 310 311 312 312 313 312 313 312 312 312 312 312 310 309 307 312 316 313 315 318 320 321 321 323 324 324 322 325 326 327 327 321 318 325 314 314 312 311 309 309 307 306 306 306 307 311 312 313 314 315 315 315 314 313 312
322 323 322 322 323 323 322 321 321 320 318 318 317 317 316 316 315 313 313 313 312 311 311 310 307 309 308 308 307 308 309 309 311 311 310 311 311 310 311 312 312 312 311 309 308 308 314 315 316 316 317 318 319 319 320 319 320 322 325 326 328 323 327 328 315 313 313 311 310 309 308 307 306 306 306 306 307 309 310 312 313 314 314 312 311
323 322 321 322 321 322 321 321 320 319 318 317 317 316 316 315 314 313 312 311 310 310 310 310 309 308 306 306 306 307 309 309 310 309 309 309 310 310 310 310 310 311 310 309 307 308 312 316 316 315 317 318 315 317 317 319 322 324 322 326 327 328 328 327 331 313 310 310 309 308 307 307 306 306 306 305 305 306 308 310 312 313 312 310 310
324 322 320 322 322 322 321 320 320 318 318 316 316 316 314 314 314 313 313 311 310 309 310 307 309 308 309 306 305 306 307 306 309 307 308 308 307 309 309 309 307 308 311 308 308 307 307 312 312 314 315 316 313 317 318 320 321 321 320 322 323 324 322 324 326 329 308 309 307 306 306 306 306 305 304 304 304 304 306 307 306 307 310 309 309
324 323 321 322 322 321 321 320 319 318 317 316 316 315 315 314 312 313 312 311 310 310 309 307 306 306 307 306 306 306 307 307 308 309 309 309 308 306 308 308 308 309 308 307 306 305 306 307 311 309 311 314 315 313 315 317 317 317 316 317 317 318 320 322 322 325 307 308 305 306 306 305 305 304 303 304 303 303 303 305 305 306 306 307 307
324 324 322 323 322 321 321 320 319 317 316 316 315 315 314 313 312 311 311 311 310 309 308 307 306 306 306 305 306 306 306 306 306 306 307 308 307 307 307 308 309 308 309 309 309 306 306 304 308 308 309 311 312 313 313 313 313 314 315 316 317 317 319 320 322 322 314 307 305 306 307 307 305 304 303 302 303 303 302 302 304 305 305 306 306
325 324 322 324 321 320 321 319 318 317 316 315 315 314 314 314 312 312 311 310 310 309 308 307 307 306 305 305 305 305 305 306 306 306 306 307 305 306 305 305 305 307 309 309 308 308 306 305 306 309 310 309 310 310 311 310 311 312 314 315 316 316 318 321 322 322 314 303 305 305 306 306 305 304 303 303 303 302 302 302 303 304 305 306 306
324 324 324 322 321 320 321 319 318 317 316 315 314 313 313 313 312 312 311 310 309 307 307 306 305 305 305 304 304 305 304 304 305 305 306 307 306 306 305 305 304 306 307 307 307 307 306 306 306 306 309 307 308 309 310 311 310 310 311 313 315 316 317 319 320 320 323 324 329 325 311 307 305 302 304 304 302 301 301 302 303 304 304 305 305
323 323 323 322 322 321 320 319 318 317 315 315 314 314 313 312 311 311 310 309 308 307 305 303 303 304 304 303 304 304 304 304 304 304 306 306 306 306 306 306 306 306 305 305 304 305 305 304 305 306 306 308 309 307 310 311 310 309 309 310 311 314 316 317 318 319 323 325 321 314 316 313 309 316 306 301 302 303 303 302 303 303 304 303 304
323 323 321 321 322 321 320 318 318 316 315 314 314 313 312 312 311 311 309 308 306 305 304 302 303 303 303 303 303 302 303 303 304 304 303 302 303 304 305 305 306 305 304 304 304 304 304 304 304 304 305 305 307 309 309 309 308 309 309 310 311 314 317 320 321 320 323 322 322 327 314 311 310 309 302 303 303 303 303 303 302 303 303 303 303
323 323 322 321 320 319 318 318 317 316 315 314 313 313 312 311 311 309 307 305 304 303 302 302 302 302 301 302 302 302 301 299 298 298 299 299 300 299 301 303 303 304 304 304 303 303 303 303 303 304 304 304 305 306 306 307 308 308 311 313 311 311 312 313 315 319 318 319 321 321 321 326 324 326 325 326 326 310 309 304 311 306 302 302 301
323 323 322 321 318 318 316 316 315 315 314 314 308 303 305 309 308 306 305 304 302 302 301 301 301 301 301 302 302 298 299 299 298 296 294 295 297 299 300 302 302 302 302 302 302 302 302 301 302 302 302 302 304 306 306 308 310 311 310 310 308 310 312 312 314 317 319 318 317 317 318 321 322 323 324 323 327 325 327 320 324 319 309 301 301
323 321 318 317 316 318 315 315 314 314 314 310 295 294 294 297 305 306 304 303 302 301 301 300 300 301 301 301 302 302 300 299 299 294 293 294 294 294 295 296 297 299 299 299 300 301 301 301 302 302 302 302 304 305 306 306 308 309 309 310 309 309 308 308 307 313 319 321 317 315 317 322 322 319 320 323 325 324 325 322 301 305 303 302 301
320 318 318 315 315 314 314 313 314 314 311 296 292 292 293 293 298 303 303 302 301 301 300 300 300 300 300 301 301 302 302 302 301 298 298 294 292 293 292 292 292 292 293 298 298 299 300 300 300 301 302 301 302 304 304 305 306 307 308 309 309 309 308 308 309 308 315 321 317 315 314 319 320 318 318 320 321 324 321 308 303 301 301 300 300
318 317 315 316 316 316 314 311 309 308 301 291 291 291 292 292 293 298 302 302 301 300 300 300 299 299 300 299 300 301 302 301 299 300 301 300 295 293 292 293 292 292 291 290 292 298 299 299 299 300 301 302 302 303 305 306 306 305 306 305 306 308 308 308 308 309 313 318 314 311 311 315 317 315 316 319 321 323 321 304 299 299 299 299 299
317 317 316 315 315 314 311 310 308 306 300 292 291 291 291 290 290 294 303 302 301 300 300 299 300 300 300 300 299 300 301 301 301 300 301 300 299 299 300 300 301 299 293 291 290 290 294 297 297 297 300 302 300 303 305 305 304 302 303 303 305 306 306 306 309 310 312 314 311 309 308 311 315 315 314 317 319 319 318 302 298 297 298 297 298
316 315 314 314 313 311 310 309 308 306 300 291 290 290 290 290 289 292 302 301 300 300 300 300 300 300 300 301 301 300 300 301 300 299 299 298 298 298 298 298 299 300 301 302 302 301 299 299 298 299 300 301 302 303 304 305 305 303 303 303 304 305 305 306 306 308 309 310 311 309 304 309 313 312 313 315 317 316 316 301 297 298 297 297 296
317 316 313 312 311 310 310 309 307 304 299 289 290 290 290 290 288 297 301 301 301 300 300 300 300 300 300 301 300 300 300 300 297 292 293 297 296 296 296 297 298 299 300 298 296 296 299 301 302 302 302 302 297 300 301 302 302 302 302 302 303 302 301 300 300 303 303 308 310 307 305 306 311 310 310 314 315 314 314 313 296 297 297 296 296
315 314 312 311 310 310 308 307 305 303 298 291 290 290 290 289 292 299 301 300 300 301 301 301 301 301 301 301 301 300 300 299 295 291 290 292 296 295 296 296 297 298 298 300 296 293 292 293 292 292 291 291 292 292 292 292 295 298 299 298 298 300 298 297 298 300 301 305 307 308 307 305 309 309 309 311 312 311 312 312 311 298 296 296 296
315 313 311 310 311 308 306 304 303 304 300 293 289 290 290 289 293 300 301 300 300 300 300 301 301 301 301 300 299 299 299 299 293 290 290 293 295 295 295 295 295 295 296 298 299 299 294 292 291 291 291 292 292 291 292 292 292 294 297 295 298 298 296 297 295 298 301 303 305 308 305 305 308 309 307 310 311 310 311 310 307 304 297 297 294
315 315 310 309 308 307 307 306 302 303 302 297 289 290 290 290 294 299 299 299 299 300 300 300 301 301 301 300 297 297 298 296 291 290 289 292 295 295 295 294 293 293 295 297 297 297 297 297 297 298 297 295 296 297 297 294 293 294 298 297 298 297 295 296 296 297 297 299 304 309 303 304 306 307 307 306 304 309 308 306 303 306 305 306 306
Wind_Speed
4 3 1 2 2 2 3 3 3 4 6 4 4 3 3 4 4 5 5 4 4 5 6 6 5 5 6 6 6 5 4 4 5 5 4 3 3 9 12 8 6 6 7 4 5 7 6 5 5 6 5 6 6 5 4 3 5 5 4 4 3 4 8 8 7 6 7 7 7 7 7 7 7 7 6 7 7 8 8 8 9 9 10 10 11
4 3 2 2 3 2 3 3 3 2 3 3 4 4 4 4 5 5 5 6 5 5 5 6 7 7 6 7 6 6 5 5 5 5 4 4 3 6 12 10 6 6 6 7 5 6 6 6 5 5 6 5 5 5 5 5 6 5 4 4 4 4 5 8 7 6 6 7 7 6 7 6 6 6 7 7 7 7 8 8 8 9 9 10 10
4 2 4 4 3 3 3 4 4 3 3 3 3 2 2 3 4 6 6 5 6 5 6 7 7 7 6 7 6 6 6 6 5 5 5 4 4 4 9 11 10 8 6 6 6 6 6 6 7 5 6 5 5 6 6 5 6 5 5 5 4 4 4 7 8 7 7 7 7 7 6 7 7 7 7 7 7 7 7 8 8 8 8 9 9
2 3 4 2 6 3 4 3 5 5 5 3 3 2 1 4 3 4 6 7 5 4 3 5 6 5 6 7 6 7 7 6 6 6 5 4 4 4 3 8 11 10 10 8 7 6 6 6 7 6 5 6 4 5 6 6 6 6 6 5 5 4 3 5 7 8 7 7 7 7 7 6 6 6 7 6 7 7 7 7 8 8 8 8 9
2 3 3 4 3 2 4 3 5 5 4 4 5 3 3 4 5 5 6 5 5 5 5 4 5 4 3 5 6 7 7 6 6 6 6 5 5 4 5 5 7 13 12 10 9 7 6 6 6 6 6 6 6 4 5 7 7 5 6 6 5 6 5 4 7 9 8 7 8 8 7 7 7 6 7 7 7 7 6 6 6 7 7 8 8
3 2 2 2 2 2 2 4 5 5 3 4 3 3 3 4 5 5 5 5 4 4 4 4 4 4 4 3 5 5 6 7 6 7 6 5 5 4 5 5 5 6 9 13 12 10 9 6 5 6 6 6 6 6 6 7 8 7 7 7 7 6 6 6 5 9 9 8 8 9 8 8 8 7 7 7 8 7 7 7 6 7 7 8 8
1 1 1 2 2 2 3 3 4 4 3 3 4 5 3 4 3 6 4 4 4 2 2 2 4 3 3 3 4 4 5 7 6 6 7 6 5 6 5 5 5 5 5 7 12 13 11 9 7 6 6 8 7 8 7 6 7 8 7 8 9 8 7 7 5 8 9 9 8 8 9 9 9 8 8 8 8 8 8 7 7 7 7 7 7
3 2 1 1 2 2 2 1 4 4 3 3 1 4 6 3 3 3 4 3 3 4 2 2 5 6 5 4 3 4 5 6 7 7 7 6 7 6 5 5 5 5 4 5 5 10 13 11 10 8 6 7 10 9 8 7 7 11 8 8 9 9 8 9 9 7 10 10 10 9 9 10 11 11 10 9 9 9 9 8 8 7 7 7 7
3 3 2 0 0 2 1 3 4 3 3 3 2 2 1 2 2 2 1 1 1 4 4 3 2 2 5 9 4 4 5 5 6 7 7 6 7 6 6 6 6 4 6 6 5 4 13 13 12 11 10 8 10 11 10 8 7 9 9 8 10 10 10 11 11 10 10 11 11 11 10 10 11 11 12 11 10 10 9 9 9 9 8 7 8
2 2 1 1 0 1 2 2 5 3 4 4 4 3 3 2 2 1 2 1 1 1 2 3 2 2 1 3 10 4 3 5 5 4 6 7 7 7 6 5 5 6 5 5 5 5 5 11 12 13 13 12 11 12 13 12 9 8 9 9 10 11 12 11 11 11 11 12 12 11 11 11 11 12 12 12 12 11 10 10 10 10 9 9 8
3 2 1 2 3 2 2 2 2 6 5 3 4 4 4 4 3 2 2 2 2 2 1 1 1 4 3 2 5 10 4 4 5 6 6 7 6 6 6 7 7 6 6 6 6 5 6 5 8 9 11 14 13 12 15 13 12 10 10 9 9 12 13 13 12 12 12 12 13 12 11 12 13 12 12 12 12 12 12 11 11 10 10 10 10
2 2 0 1 2 3 3 3 4 4 4 4 5 5 5 4 5 5 6 4 2 1 1 2 2 3 5 4 5 8 8 6 6 6 5 6 6 6 7 7 7 7 7 7 6 6 5 5 5 7 8 13 16 14 15 14 13 13 12 11 10 11 13 14 14 14 13 13 14 13 12 13 13 13 13 13 12 13 13 12 12 11 10 10 10
3 2 1 0 0 2 4 6 5 3 3 3 4 5 5 3 3 3 6 7 6 5 4 3 2 2 3 5 5 5 4 2 7 8 5 5 5 6 6 7 8 8 7 7 7 7 7 6 6 6 6 6 12 16 15 15 15 15 15 15 14 12 13 15 15 15 15 15 15 15 13 15 15 15 14 14 13 13 13 13 13 12 12 11 11
2 2 2 2 0 2 2 5 4 4 4 5 3 3 4 5 4 4 5 7 5 4 4 5 3 2 1 2 4 3 5 4 4 8 4 4 5 5 6 7 8 7 8 7 8 8 8 8 7 6 6 6 7 8 10 12 13 16 16 17 17 17 15 14 16 17 16 15 16 16 15 15 16 16 16 15 15 14 14 14 14 13 13 13 12
3 3 2 2 3 2 2 2 3 4 5 5 4 4 5 5 5 5 4 6 5 3 5 4 3 3 2 1 2 3 1 1 4 5 4 6 7 8 7 8 10 7 7 7 8 8 8 7 7 8 7 7 7 6 8 10 11 16 18 17 18 18 18 17 16 17 17 17 16 16 16 16 16 17 17 17 17 16 16 15 15 15 14 14 13
4 3 2 3 3 3 3 3 4 4 4 3 3 2 1 1 3 3 4 4 5 3 4 5 3 3 2 2 1 2 1 1 1 1 3 7 7 9 5 5 5 7 6 6 6 7 7 8 9 7 8 8 8 7 7 7 11 16 18 18 18 18 19 19 18 17 17 19 17 15 17 17 18 18 17 18 18 18 17 17 16 16 15 15 14
5 5 5 4 3 3 4 4 4 3 3 4 3 2 2 1 1 2 3 2 3 1 1 3 4 5 2 2 2 2 1 2 1 1 1 2 2 9 7 5 6 4 5 6 5 6 6 8 7 7 8 9 9 9 8 8 8 8 12 16 17 18 18 19 18 18 18 17 16 17 16 16 18 18 18 18 18 18 18 17 17 16 16 15 15
5 6 5 5 5 4 4 4 4 4 4 4 4 4 2 2 3 2 2 2 1 2 2 1 3 4 5 4 1 1 1 1 1 1 1 2 2 3 6 12 4 4 3 3 5 6 4 5 5 6 6 7 8 9 9 9 9 8 8 10 17 18 19 18 18 18 19 19 19 16 15 18 18 18 18 18 18 18 18 18 17 16 16 15 15
5 6 6 6 6 5 5 5 5 4 4 4 5 4 4 5 4 3 4 4 3 1 2 1 2 2 4 5 3 1 2 3 3 0 2 2 3 3 3 6 6 6 6 5 3 3 3 4 4 6 6 6 7 7 8 9 10 10 9 7 15 18 18 17 18 18 19 20 20 19 17 18 19 19 19 19 19 19 19 18 18 17 17 16 16
5 5 6 6 6 6 6 5 5 5 5 5 5 4 4 5 5 5 4 3 4 3 3 3 1 1 1 1 2 2 3 2 2 3 2 2 3 2 2 4 6 7 5 5 4 4 3 4 6 7 6 5 6 6 7 7 8 10 10 12 8 10 13 16 17 16 16 18 20 19 19 18 21 19 19 18 19 19 19 19 20 19 18 18 17
6 6 7 7 7 7 6 6 5 5 5 6 5 6 6 5 5 5 6 5 4 3 2 3 3 3 1 1 1 3 1 3 3 1 1 1 2 2 2 2 4 5 4 4 5 5 6 6 6 6 5 5 6 6 6 6 6 7 8 9 12 12 12 13 14 15 15 14 17 20 21 16 18 20 19 19 19 19 20 20 20 20 19 19 18
5 6 7 7 7 7 7 7 7 6 6 7 6 6 6 6 6 5 5 6 5 5 5 4 4 4 4 3 4 4 2 3 2 3 1 2 4 4 3 4 4 3 3 7 9 8 7 7 7 8 7 6 6 6 7 6 5 6 5 5 8 11 12 12 13 13 14 14 14 18 20 17 17 20 22 23 22 21 20 21 22 21 21 20 20
5 5 6 6 7 7 7 7 6 6 6 6 5 5 5 5 5 6 6 6 5 5 5 5 3 4 4 4 3 4 3 3 3 2 3 3 4 5 5 6 6 6 5 6 5 7 10 9 8 8 8 7 6 6 6 6 5 6 4 2 5 8 10 12 13 13 13 14 13 15 18 16 16 19 22 25 26 24 23 23 23 23 23 22 21
5 5 5 6 6 6 6 6 6 6 5 5 5 5 5 5 4 4 5 5 5 4 5 5 4 3 3 3 3 3 3 3 3 2 2 2 3 5 6 6 7 7 6 5 7 9 10 11 8 8 8 7 6 5 4 5 6 6 7 8 9 7 10 11 12 13 14 14 14 14 16 18 16 19 21 23 24 25 25 26 26 25 24 23 23
5 5 6 6 5 5 5 5 6 5 5 5 5 5 5 5 5 5 5 5 5 5 5 5 5 4 3 3 3 2 3 3 3 3 2 2 4 5 4 5 7 7 8 8 7 7 8 8 8 8 7 5 5 6 5 5 6 8 10 8 11 9 9 11 12 13 14 14 14 13 14 16 16 18 20 22 23 24 25 25 23 20 19 19 21
6 6 6 6 4 5 5 6 6 6 6 5 5 4 4 4 5 5 5 5 5 5 5 5 4 4 3 3 3 3 3 2 3 2 2 3 4 4 5 5 6 8 8 8 7 7 6 6 4 5 5 6 5 3 4 6 5 9 10 8 7 10 11 11 12 12 12 13 14 14 14 14 14 15 17 18 21 21 21 20 20 20 19 19 19
5 6 7 6 6 5 6 6 6 6 6 5 5 4 4 4 5 4 4 4 4 4 4 4 4 4 3 3 2 2 3 3 3 3 3 3 4 4 5 7 6 5 6 7 7 7 6 5 6 6 5 4 4 5 6 6 4 8 6 7 7 8 10 11 12 12 12 12 13 13 14 14 14 14 13 12 11 19 19 20 20 20 20 20 20
5 6 7 7 7 7 7 6 6 6 5 5 4 4 4 3 4 3 4 3 3 3 3 3 3 3 2 3 2 2 3 3 4 3 4 4 4 4 4 5 6 7 5 6 6 6 5 6 4 4 3 4 4 4 5 4 4 7 7 6 6 6 10 10 11 11 12 12 12 13 13 13 13 13 13 13 12 12 20 20 20 19 20 21 21
6 7 8 8 8 8 7 7 7 6 6 5 5 5 4 3 4 4 3 3 3 3 3 2 2 1 2 2 3 2 1 2 3 4 4 4 4 4 4 5 5 7 7 6 5 5 7 7 6 6 3 3 4 4 4 6 4 3 6 7 6 7 7 10 9 10 11 11 12 12 12 13 13 14 13 13 13 12 16 20 20 22 20 20 21
8 7 8 9 8 8 8 8 7 7 6 6 5 5 5 4 4 4 3 3 3 3 2 2 2 2 2 2 2 2 2 3 2 3 4 4 4 4 4 5 5 6 6 7 7 5 6 6 6 6 4 4 4 4 5 6 8 6 7 8 9 5 4 6 6 9 10 11 11 12 12 12 12 12 12 12 14 14 14 18 20 19 21 22 22
9 9 9 10 9 9 8 8 8 7 7 6 6 5 4 5 5 5 4 3 3 3 2 2 1 1 1 1 2 1 2 2 3 2 3 3 4 4 4 5 5 6 7 7 8 5 3 5 6 7 7 8 7 7 7 7 7 7 9 9 11 6 4 6 11 11 12 12 12 12 12 12 11 11 10 10 12 14 15 16 19 21 21 23 23
10 11 10 11 11 10 9 9 9 8 8 6 5 5 4 4 4 4 4 4 4 4 3 2 1 0 1 1 1 2 2 3 3 2 3 3 3 5 4 5 5 5 6 7 8 9 6 7 7 7 9 8 7 9 9 8 6 5 8 8 9 9 9 11 13 15 12 13 13 12 11 11 11 12 11 11 13 15 16 14 18 22 24 23 23
10 11 11 12 12 11 11 10 10 9 9 8 6 5 4 5 4 4 5 5 5 4 3 4 3 2 0 1 1 1 1 4 3 3 3 3 4 4 4 4 5 5 6 7 9 9 8 6 7 7 7 7 8 8 9 8 7 7 8 8 9 8 9 9 7 13 14 13 12 11 11 11 11 12 11 11 12 13 14 16 17 21 22 23 24
11 12 13 11 11 12 12 12 11 10 10 9 8 6 6 6 6 4 4 5 4 4 3 2 3 2 2 1 1 0 2 3 3 6 3 4 5 5 4 3 5 5 5 7 8 8 10 7 7 7 8 8 8 7 7 7 7 8 9 9 7 9 9 9 9 6 15 10 10 9 10 11 11 11 11 11 11 12 14 15 17 18 21 22 25
11 12 12 13 13 13 12 12 12 11 10 9 8 8 7 8 7 6 5 5 4 4 4 2 1 1 1 1 1 0 1 3 3 4 4 5 5 6 5 5 6 6 6 7 8 9 10 9 8 8 8 7 7 8 9 8 8 9 10 10 10 9 9 9 9 9 13 11 10 8 10 11 11 10 10 10 10 12 13 15 17 17 18 21 23
11 11 13 14 14 13 13 12 12 12 11 10 9 9 9 8 8 8 7 6 5 4 3 3 2 2 1 2 1 2 2 3 3 4 4 3 5 6 6 6 6 7 7 7 8 8 9 10 9 9 8 9 8 8 8 8 9 9 9 10 10 10 10 9 9 11 9 11 10 9 10 10 11 9 9 10 10 11 13 15 16 17 17 20 22
11 12 12 14 14 15 13 14 13 13 12 12 11 10 9 8 8 8 7 6 6 5 4 3 3 3 2 2 2 2 2 3 3 4 3 5 6 6 7 6 7 7 6 7 8 9 9 10 10 9 9 10 9 9 9 9 9 9 9 10 9 10 10 9 8 9 8 13 12 11 10 11 12 12 11 10 10 11 12 14 15 16 17 18 21
13 13 14 13 14 15 15 15 14 13 13 12 12 11 10 9 8 7 7 6 6 5 4 3 3 3 3 3 2 3 3 3 4 4 5 6 6 6 7 7 8 8 8 9 9 10 11 11 10 10 9 9 9 8 9 9 9 9 9 9 10 10 10 9 9 8 8 6 6 7 8 10 14 12 9 10 11 11 11 13 14 15 17 18 19
13 13 13 14 14 15 15 14 14 14 13 13 12 11 10 10 9 9 8 7 6 5 4 4 4 3 3 3 3 3 4 4 4 5 5 6 6 7 7 7 8 8 8 9 9 11 11 11 11 10 10 9 9 9 8 8 9 9 10 9 9 8 8 9 8 8 7 8 7 4 6 5 2 3 7 8 9 11 10 11 13 15 15 17 18
13 13 14 13 12 14 15 15 14 13 13 13 12 12 11 10 9 9 8 6 6 5 5 4 4 4 4 3 4 3 3 4 3 4 5 6 6 7 7 7 8 8 9 9 9 10 10 11 10 10 9 9 8 9 8 8 9 8 8 8 8 7 7 7 8 7 7 7 9 7 6 5 9 10 11 12 12 12 12 10 11 12 14 15 16
11 12 13 14 14 15 15 15 15 13 12 12 11 11 10 10 8 8 7 6 5 5 5 4 4 4 4 3 4 3 1 5 5 6 7 7 7 7 8 8 9 9 9 9 10 10 10 10 11 10 10 10 9 9 9 8 8 8 6 7 8 9 9 9 10 10 9 8 7 8 7 8 8 6 6 7 7 11 10 12 8 11 13 12 13
11 12 12 12 12 10 12 13 13 12 11 9 8 12 9 8 8 6 6 5 5 5 4 4 4 3 3 3 4 4 3 7 9 10 10 10 10 9 9 8 9 9 10 10 10 10 10 11 11 11 11 10 9 9 9 9 8 8 9 9 10 9 9 9 9 8 8 10 10 9 8 7 7 8 7 7 4 7 4 6 6 4 5 13 12
11 8 12 11 9 8 11 13 14 12 10 7 13 11 9 6 6 6 6 5 5 4 4 4 3 3 4 4 4 7 10 12 12 15 13 12 12 13 13 13 12 11 11 11 11 11 11 11 11 11 11 12 11 11 10 10 10 9 8 8 9 8 9 9 9 7 6 6 9 9 8 8 7 9 8 7 7 6 6 2 11 8 8 3 8
9 10 11 14 15 14 12 11 9 7 6 12 13 12 10 7 4 5 5 5 5 5 4 4 3 3 4 4 5 5 6 6 6 7 10 15 15 14 13 13 13 15 15 13 12 12 12 12 12 12 12 12 12 11 10 10 10 9 9 9 9 9 9 9 9 8 3 1 6 9 10 7 8 10 9 8 7 6 3 6 6 5 4 6 6
12 12 12 13 13 13 11 10 9 9 9 11 11 12 10 8 4 3 5 5 5 5 4 4 4 4 5 5 5 5 5 6 7 8 8 7 8 14 14 14 16 16 16 17 17 16 14 15 14 15 13 12 13 12 11 11 10 11 10 10 10 10 10 11 10 9 8 6 7 9 10 9 8 9 9 8 8 2 3 8 8 7 6 6 6
11 11 12 13 12 11 10 10 9 9 9 12 14 12 11 9 8 7 3 5 4 3 4 4 4 5 6 6 6 6 7 7 7 8 8 8 10 10 9 9 10 12 18 21 20 20 18 16 16 16 15 14 14 13 12 11 12 13 12 12 11 12 12 13 13 12 10 8 10 10 11 10 8 9 10 8 8 2 1 7 6 6 7 7 8
10 10 10 11 10 10 11 10 9 9 8 13 12 12 11 10 10 7 4 4 4 4 5 5 6 6 7 7 7 8 8 8 7 7 9 10 11 10 11 11 12 12 12 11 12 13 13 15 17 17 16 15 15 16 15 13 15 14 14 14 14 14 14 14 14 15 14 14 14 12 14 10 8 10 10 8 5 3 4 8 8 5 6 8 8
9 9 8 8 9 10 9 9 9 9 9 14 12 12 12 10 10 6 4 4 4 5 5 6 6 7 7 7 8 8 8 8 9 4 6 8 11 12 12 12 12 12 12 11 12 10 12 14 13 13 12 12 13 12 12 11 11 11 12 14 14 14 14 15 16 12 13 11 11 12 12 11 9 10 10 9 7 7 7 3 12 6 5 7 8
9 9 9 8 9 9 9 8 9 8 9 12 12 12 11 11 9 5 3 4 5 5 6 6 7 7 8 8 8 8 9 10 8 2 3 5 11 13 13 13 12 12 12 12 13 16 18 17 17 19 21 22 22 20 18 19 13 11 12 13 13 12 15 16 15 14 14 10 10 11 12 13 10 10 10 9 10 7 7 7 2 7 2 3 5
10 9 9 9 9 9 11 10 7 7 9 11 11 10 10 11 8 4 4 5 5 5 6 7 7 7 8 4 6 11 12 11 8 2 1 5 12 12 13 14 15 15 14 12 11 11 12 15 16 18 19 19 21 22 22 21 21 16 14 18 16 15 17 16 16 14 12 12 11 10 12 14 11 11 12 11 2 5 8 5 3 3 7 7 7
10 10 9 10 9 9 9 10 8 8 7 10 11 10 9 10 7 5 5 5 6 6 6 7 7 8 8 7 11 12 12 11 9 8 6 7 11 11 15 16 17 17 15 16 15 15 15 15 14 13 13 16 16 17 18 19 19 18 18 18 18 18 20 17 16 15 14 13 11 12 13 12 12 12 11 10 10 6 6 5 3 3 2 2 1
Wind_Direction
237 229 181 216 225 231 211 211 179 249 259 214 237 228 232 230 202 194 190 185 211 213 216 219 205 205 220 234 235 226 223 231 220 205 208 184 228 157 173 185 222 241 249 220 186 175 179 181 165 163 167 179 181 170 173 166 153 170 180 162 108 118 143 135 128 131 123 115 120 127 120 119 113 107 104 95 90 89 87 89 86 82 81 75 72
241 237 235 248 243 222 216 216 210 209 309 271 228 238 247 229 217 205 193 189 199 205 224 224 223 207 220 225 223 235 215 224 220 218 203 208 199 147 170 171 195 227 248 272 220 190 179 173 176 164 177 180 175 176 178 180 160 188 180 175 116 95 154 144 146 139 136 125 119 122 120 115 113 111 113 109 104 101 102 102 98 92 89 86 81
252 250 252 261 253 232 241 223 211 214 228 258 279 283 264 249 219 193 191 209 204 193 215 228 229 220 214 228 221 230 224 225 228 224 229 220 210 193 167 173 183 204 232 243 263 223 194 174 184 179 173 184 180 181 182 209 168 182 187 184 132 110 141 164 152 147 145 141 134 129 128 124 125 119 118 121 120 116 112 106 106 101 94 91 87
233 241 254 243 261 250 243 239 223 216 214 226 248 159 171 247 192 187 201 199 181 192 214 237 244 236 217 230 227 228 222 222 226 228 228 230 235 231 191 178 181 194 206 224 242 251 228 196 183 193 181 185 184 188 179 187 187 182 187 203 169 164 157 172 173 158 159 148 144 137 134 135 130 132 121 113 116 116 116 114 109 111 109 103 96
226 231 253 257 275 237 242 229 223 209 207 223 265 120 217 201 183 178 188 176 182 181 201 223 234 239 236 229 238 233 236 226 224 236 240 228 236 240 233 210 188 191 197 204 211 237 241 223 214 199 196 185 186 193 169 185 191 194 193 205 198 190 193 177 191 172 164 164 155 151 149 142 137 135 140 132 130 129 126 122 115 110 107 103 104
262 225 263 258 265 251 252 235 210 200 202 210 219 71 295 246 169 168 171 177 174 195 209 213 240 232 232 228 221 241 244 239 228 230 243 248 248 258 251 234 220 199 201 197 204 207 219 231 237 222 218 195 195 192 190 191 188 184 192 202 210 215 213 207 194 191 172 169 169 162 160 150 150 148 149 145 138 137 135 132 130 117 113 108 105
17 359 347 308 292 262 231 229 196 152 201 195 198 193 157 244 199 159 181 186 188 219 248 315 255 260 250 228 229 212 227 240 240 237 234 240 250 246 251 256 245 243 218 199 199 199 202 204 223 229 228 207 209 204 208 202 174 185 185 200 208 215 215 224 219 198 181 172 179 176 172 160 159 157 154 155 150 147 143 140 137 134 123 122 120
25 30 16 304 292 264 225 176 159 161 176 207 166 218 173 214 127 149 172 198 226 152 93 360 351 315 274 248 234 223 230 233 230 235 235 244 241 237 243 247 248 244 254 256 202 198 194 197 201 217 224 223 216 220 219 213 189 184 197 201 206 210 213 216 219 201 195 185 183 190 186 176 168 165 163 163 164 155 154 151 146 141 137 134 129
40 52 46 324 14 292 242 169 172 168 133 89 151 238 85 127 80 38 77 110 279 314 154 134 175 254 353 307 248 227 233 226 230 230 237 229 242 239 239 243 247 252 249 247 252 207 190 193 198 202 214 220 224 225 226 220 222 201 198 207 205 205 211 213 213 215 205 202 193 193 195 190 177 173 168 167 170 167 164 161 157 154 150 141 138
55 71 105 51 67 194 233 201 148 163 190 164 165 171 151 106 138 298 339 284 266 285 334 338 325 342 266 354 305 264 238 244 241 234 236 229 227 246 249 257 253 245 251 257 257 245 205 189 198 205 208 209 215 223 228 230 226 218 210 208 202 202 207 217 221 217 210 207 208 208 198 193 184 180 174 173 174 174 173 169 167 165 160 157 150
54 66 49 112 111 122 40 47 130 158 181 197 202 194 189 193 182 237 255 276 296 291 302 342 325 305 315 277 268 296 265 232 228 235 229 236 248 249 237 234 235 236 238 243 241 239 237 213 207 216 214 210 208 209 218 225 234 228 219 215 211 205 205 213 219 223 220 210 210 212 205 191 185 184 181 182 178 178 179 176 173 172 168 165 162
41 45 52 78 141 128 137 124 96 128 140 187 210 213 217 215 211 223 234 222 199 218 151 133 318 315 300 295 278 264 297 342 304 243 243 257 248 246 260 256 242 239 238 242 244 245 239 230 222 221 232 199 210 213 214 216 219 229 236 228 216 212 205 210 215 220 221 220 209 211 199 192 187 188 187 188 185 183 184 180 178 178 176 172 168
11 24 55 148 152 128 148 144 158 154 173 153 193 216 228 230 236 224 236 227 221 211 195 183 158 251 246 263 271 287 267 230 311 280 248 242 257 267 253 257 259 254 244 236 237 237 232 238 230 235 229 226 196 209 214 214 215 218 223 229 233 222 213 212 215 219 221 218 211 206 201 190 187 188 191 190 190 189 189 184 185 181 180 180 174
45 50 29 28 69 157 146 147 168 163 162 164 165 216 207 209 221 237 226 230 228 194 188 162 174 197 338 314 283 247 261 264 219 275 289 275 289 285 275 269 256 242 251 248 240 235 235 225 234 238 238 237 224 202 212 216 219 220 218 222 226 229 226 217 215 220 222 221 216 203 196 190 188 190 192 191 192 192 192 188 191 185 185 184 182
67 45 40 39 32 30 79 80 134 154 157 156 170 201 214 208 198 222 202 217 218 184 175 196 175 156 117 350 292 274 267 247 254 273 331 337 321 294 284 276 266 255 243 240 244 245 242 241 233 230 242 249 247 229 218 215 222 202 214 217 222 227 228 228 222 222 223 223 223 204 196 189 189 190 193 193 192 192 193 191 193 189 188 189 187
50 85 69 68 52 65 64 64 86 93 123 125 114 94 278 189 175 213 232 209 201 205 179 192 222 163 191 208 252 307 264 244 233 66 333 315 326 305 306 300 287 271 257 250 239 244 245 246 245 237 235 241 248 245 243 243 195 188 202 211 218 223 229 230 231 228 221 224 226 215 193 190 190 191 195 196 194 193 195 192 193 194 191 190 192
73 55 75 79 80 67 67 75 65 59 79 100 96 100 117 106 281 219 201 227 200 204 193 194 200 230 215 170 213 220 263 32 358 297 51 3 314 291 305 281 294 300 252 235 251 244 246 241 238 240 239 239 239 244 250 244 234 210 198 207 214 221 226 231 232 233 231 230 226 227 200 193 192 192 195 199 197 195 195 194 195 194 195 195 195
69 72 73 87 92 85 79 84 76 68 59 68 93 99 83 76 35 35 91 79 357 205 199 131 265 206 232 258 239 268 120 110 88 263 61 244 290 287 335 311 294 295 287 272 254 253 232 244 221 233 238 238 239 245 238 242 241 240 239 200 206 217 223 226 230 233 237 235 234 228 216 200 196 195 196 197 199 197 195 194 194 196 196 197 197
80 84 86 86 84 85 82 75 83 81 75 75 74 65 57 45 53 41 45 43 37 317 150 42 313 184 229 229 207 197 209 197 236 227 256 294 269 268 224 262 309 300 299 289 243 228 256 273 246 237 221 226 234 240 240 240 244 252 244 242 197 212 215 221 228 232 234 239 241 233 227 206 202 198 199 198 197 197 196 194 193 195 196 198 199
94 89 91 85 82 83 79 76 77 79 87 83 78 73 78 80 68 65 56 58 62 69 74 102 285 150 221 222 162 335 177 233 283 258 259 249 226 229 271 296 310 297 273 262 294 299 266 261 253 232 226 240 234 234 240 244 237 230 229 228 219 204 216 223 227 231 235 238 242 245 234 216 205 202 202 199 196 195 196 196 195 198 197 197 199
85 97 95 95 93 85 80 76 69 76 86 89 83 80 75 74 74 66 67 64 53 42 43 46 48 42 311 304 237 183 186 92 101 204 270 270 261 225 225 251 281 285 273 296 284 274 260 249 253 285 282 237 245 244 243 243 241 238 241 194 209 215 215 218 226 230 233 236 243 246 244 228 210 202 200 199 198 195 196 195 197 197 200 198 198
99 99 102 97 92 92 89 84 81 71 69 77 86 85 83 82 71 71 73 82 73 63 51 44 37 36 11 3 343 343 289 187 114 21 315 284 283 286 283 282 253 208 255 271 261 254 258 250 247 246 245 237 238 244 243 244 239 241 229 174 191 210 219 224 225 227 228 230 235 242 249 240 215 214 205 205 202 199 199 196 196 197 199 200 199
120 115 109 106 97 90 90 90 86 80 80 82 75 85 92 89 86 80 73 71 71 72 66 51 45 43 16 23 10 15 12 351 2 352 347 315 306 299 305 295 290 288 246 242 257 277 264 255 251 254 250 235 225 233 233 233 245 261 49 177 205 203 208 218 225 227 229 230 232 239 249 246 232 226 217 210 211 206 202 201 200 201 201 201 199
144 134 132 123 116 106 103 100 93 91 86 81 87 90 88 87 84 86 85 79 80 75 66 57 43 50 38 19 19 1 15 1 20 349 327 327 311 301 294 300 294 288 298 296 273 267 264 263 245 235 238 250 239 235 241 237 224 205 243 236 240 229 227 217 220 222 224 228 230 235 243 249 236 228 224 218 215 210 208 209 207 208 205 203 200
162 154 144 145 132 127 118 107 105 99 94 93 85 75 77 82 84 86 76 74 69 66 70 59 43 22 29 19 3 10 5 15 342 344 318 301 286 282 288 307 301 297 287 279 266 256 259 257 246 243 225 211 248 236 244 239 258 174 220 242 231 236 231 238 228 221 220 222 227 229 238 246 245 233 229 223 220 216 210 208 206 207 206 208 204
168 168 154 160 145 126 115 106 105 109 106 99 93 87 84 93 93 84 86 80 78 81 81 75 66 52 15 2 1 354 350 342 331 299 313 296 300 303 307 294 290 292 298 293 289 284 264 254 255 276 279 253 247 248 238 267 262 152 207 254 223 220 235 234 238 235 226 224 224 227 230 238 245 245 239 230 216 213 212 203 200 203 201 202 202
174 168 158 164 145 136 127 123 118 113 112 107 102 96 83 78 83 75 74 75 80 70 67 58 58 50 35 1 347 346 334 330 321 310 309 306 301 308 306 305 297 285 294 300 305 289 288 286 284 272 250 257 260 253 249 241 270 123 193 232 255 227 223 230 243 247 236 227 225 225 227 230 235 239 240 251 243 209 205 203 203 199 199 199 200
172 163 165 165 156 147 144 136 132 127 123 122 118 104 102 97 91 91 87 86 90 84 98 96 66 48 28 357 307 352 332 336 310 333 315 324 295 284 280 282 293 298 298 296 297 300 318 300 301 263 303 286 263 287 325 299 299 111 209 255 256 232 200 225 234 242 248 244 234 230 228 230 232 232 234 232 237 227 204 203 201 198 199 200 199
171 167 171 167 165 160 152 147 144 139 135 131 125 123 126 111 100 100 94 88 79 70 46 47 73 34 48 350 322 313 345 329 307 318 317 299 294 290 284 281 288 287 292 293 283 287 302 322 320 326 287 314 328 313 288 291 129 237 289 270 262 268 202 205 230 247 249 248 248 243 236 230 230 229 228 226 227 225 213 202 199 196 198 201 201
171 169 173 170 168 165 159 156 152 150 148 145 144 139 142 125 125 119 104 111 116 99 83 69 44 36 20 345 329 312 18 300 337 304 296 301 285 286 278 274 264 273 283 288 290 280 282 283 279 290 337 316 305 290 300 288 90 338 301 299 294 303 87 204 236 246 251 248 245 245 245 245 242 238 229 223 219 222 216 210 205 199 198 201 204
174 169 174 174 173 172 169 163 160 158 158 152 155 155 148 134 141 127 134 141 119 113 94 74 58 24 29 326 322 303 311 284 279 252 255 264 282 275 271 272 273 273 280 282 282 271 270 293 301 304 313 316 305 306 299 292 299 307 288 282 277 113 226 242 230 235 242 248 248 239 238 239 243 240 236 230 225 226 222 212 208 206 202 204 202
178 174 179 178 177 177 175 170 166 165 162 162 164 151 158 142 149 137 134 151 142 141 137 134 122 135 241 263 307 321 323 288 247 266 272 262 280 286 281 280 274 271 279 277 274 282 288 295 297 288 284 292 304 292 286 281 256 208 280 272 274 290 275 273 215 216 218 237 245 249 243 240 240 242 232 216 219 221 224 217 210 209 206 206 203
181 178 182 182 181 180 178 175 174 170 166 166 165 165 161 148 136 137 151 153 157 142 145 160 159 179 304 295 241 258 265 280 295 278 269 280 260 258 273 275 273 273 271 277 279 283 285 284 287 292 298 299 287 281 283 283 278 273 265 271 276 277 279 274 265 193 211 216 235 245 250 249 244 246 245 230 227 226 222 219 215 214 209 206 205
187 184 186 183 184 183 181 180 177 174 173 168 169 171 165 156 153 156 160 161 154 142 159 153 147 171 196 270 311 302 299 293 289 287 285 282 279 270 251 255 279 284 278 283 286 286 290 292 288 296 294 289 283 290 295 297 294 290 283 281 274 270 271 276 270 247 187 200 213 228 248 248 250 249 248 244 232 226 224 223 222 219 215 212 209
191 191 190 184 186 186 184 183 178 176 175 169 172 175 167 169 167 164 165 165 164 162 174 169 204 130 220 237 258 236 236 271 282 283 289 274 291 295 293 289 285 278 279 279 287 287 288 291 294 288 285 290 290 295 293 288 290 291 285 278 276 272 271 266 263 271 167 185 184 215 234 243 250 248 245 246 239 228 225 225 224 222 216 215 215
191 193 192 186 185 186 185 183 179 175 173 170 174 177 175 174 173 168 169 169 171 174 178 194 201 235 256 256 231 251 268 275 287 300 286 296 290 294 296 277 262 261 266 270 263 272 282 286 290 291 295 298 289 283 287 290 284 276 275 279 271 270 270 263 257 262 161 170 173 205 224 237 245 246 242 243 240 229 225 224 226 227 221 218 216
199 192 191 189 186 186 185 183 179 178 176 175 175 175 172 176 173 168 174 168 170 174 177 193 207 240 239 241 256 268 266 278 276 276 303 304 298 297 295 294 285 281 272 267 272 274 278 280 285 286 285 283 287 287 286 287 288 283 279 271 268 269 270 270 274 273 148 181 177 202 213 227 238 235 231 235 233 229 227 226 226 226 225 221 221
205 196 191 189 187 187 183 182 181 180 179 178 176 174 173 172 170 171 170 170 173 178 176 205 210 210 227 242 244 255 271 275 282 288 286 284 288 284 284 289 296 299 293 287 281 275 276 276 279 282 276 277 280 277 281 283 285 289 289 287 283 273 266 263 260 255 262 227 209 196 211 224 225 230 227 221 230 229 227 227 227 226 225 223 223
209 200 196 194 188 184 180 180 181 181 180 178 176 175 173 173 173 170 169 171 174 172 184 187 187 197 221 227 242 245 254 266 272 276 279 279 273 274 271 270 273 278 281 284 285 287 285 285 281 278 280 274 270 276 273 272 275 275 279 282 277 269 258 256 253 252 238 244 234 234 266 305 10 243 176 215 225 235 234 227 228 229 227 225 222
217 211 205 199 193 185 179 178 179 180 178 178 175 174 176 174 172 169 166 171 174 169 172 180 173 190 197 212 229 241 249 264 289 289 283 276 281 279 277 275 273 270 271 271 270 272 275 276 276 282 283 287 282 273 273 267 268 269 267 275 284 290 289 279 274 270 266 267 263 215 185 214 219 225 214 217 217 217 223 230 230 236 235 230 225
223 222 212 189 188 188 178 176 175 174 177 176 178 177 172 170 168 167 165 168 170 169 174 170 174 186 201 199 223 218 25 353 328 299 291 298 290 275 274 275 271 269 268 265 271 271 270 270 273 273 273 275 278 282 279 272 268 275 293 294 288 285 281 276 269 264 265 268 258 258 239 224 243 235 231 235 203 190 204 218 242 220 230 237 233
227 222 210 178 172 169 177 177 172 171 172 181 148 155 160 165 165 157 156 165 176 172 179 172 185 206 218 243 219 146 212 232 241 242 242 250 249 261 278 283 278 274 270 270 269 268 270 271 271 274 274 272 272 273 277 282 288 287 280 273 268 271 271 268 268 263 264 257 262 258 255 250 247 251 245 242 179 178 264 203 247 298 204 216 228
231 170 156 142 136 174 198 186 174 173 169 130 119 114 107 123 150 150 159 161 169 180 182 194 216 218 233 238 268 191 202 219 225 223 236 237 237 245 251 256 268 273 278 274 271 269 270 272 273 270 268 268 265 267 269 276 279 279 279 278 274 272 271 273 271 266 252 286 271 269 269 265 259 260 260 246 233 247 239 68 42 28 357 300 235
190 182 176 181 187 184 186 185 171 150 120 115 121 122 130 139 152 155 162 168 177 187 193 202 219 233 251 263 258 270 270 271 301 282 229 214 223 232 234 243 249 254 256 263 267 268 266 267 267 264 266 265 266 265 266 265 267 269 265 265 264 268 269 267 270 266 266 118 272 266 266 267 266 259 258 268 269 245 86 54 44 34 337 322 296
229 214 192 192 187 180 165 152 133 114 110 130 128 140 149 147 153 217 173 176 189 191 201 211 241 260 268 266 268 263 273 179 225 253 283 286 221 209 220 225 231 236 244 242 244 254 268 269 268 267 264 270 271 266 265 270 277 275 279 275 275 271 263 263 265 267 266 262 269 269 268 266 266 264 259 251 257 212 115 77 34 355 341 313 306
227 225 206 188 180 168 154 145 128 131 136 151 150 154 156 157 171 224 181 176 209 216 214 228 234 248 248 258 269 272 273 272 277 274 283 288 300 295 278 272 272 237 222 228 236 238 240 251 257 263 265 266 268 272 275 276 268 267 270 271 271 272 268 264 267 270 279 286 268 273 272 265 262 265 260 257 254 190 99 86 53 22 342 332 321
218 214 198 179 168 159 158 158 158 143 137 150 156 161 160 168 179 223 189 179 214 225 231 237 248 253 260 261 265 268 274 275 278 294 287 291 294 293 286 281 274 273 274 262 242 233 229 230 243 253 265 268 270 273 275 273 268 266 266 271 275 275 281 289 288 272 266 259 261 260 261 258 253 258 259 254 231 159 228 110 84 19 357 336 331
214 204 187 173 163 157 141 139 135 132 136 157 168 168 164 170 177 212 197 204 226 237 240 244 249 257 258 261 265 273 278 277 282 221 235 281 291 289 286 281 278 276 272 262 264 272 281 286 280 279 274 285 301 294 296 300 305 304 292 270 262 265 269 265 263 264 259 249 243 246 253 256 251 252 255 257 248 237 241 203 107 65 5 353 339
211 189 167 161 157 149 137 125 113 115 146 174 174 169 167 166 183 212 213 232 239 237 248 256 261 262 261 260 262 277 283 286 298 294 223 251 289 289 288 286 284 282 275 275 254 234 229 237 251 268 278 283 283 282 278 279 278 286 287 276 263 259 258 260 262 260 257 253 241 245 254 256 246 251 252 244 251 239 247 254 235 98 25 10 10
215 188 163 153 151 137 128 122 135 143 148 167 175 172 171 175 208 230 246 253 260 267 268 267 270 270 270 242 259 270 276 279 295 345 347 286 291 293 293 292 289 286 282 282 281 271 236 220 229 241 251 261 269 273 279 279 276 267 261 256 255 258 259 259 264 262 265 257 245 240 252 253 254 248 254 256 170 193 236 238 250 224 189 177 108
215 197 167 152 133 130 135 140 131 132 141 159 174 174 181 180 210 246 264 271 275 277 281 280 277 281 280 246 207 224 253 271 278 270 273 276 282 289 295 296 291 286 285 286 284 283 281 278 269 257 248 239 240 246 250 245 245 254 258 259 255 253 257 260 259 263 260 253 250 240 247 250 250 245 247 250 240 211 160 184 204 241 276 263 183